This is the latest recevied weather packets stored in our database for station/object WX1NWA. If no packets are shown the sender has not sent any weather packets the latest 10 day(s).
| Time | Temp. | Humidity | Pressure | Rain* | Wind** | Luminosity | Snow |
|---|---|---|---|---|---|---|---|
| 1777640124 | 10° C | 84% | 1020.6 hPa | 0 mm | - | 149 W/m² | - |
| 1777639821 | 10° C | 84% | 1020.7 hPa | 0 mm | - | 129 W/m² | - |
| 1777639518 | 9.44° C | 82% | 1020.7 hPa | 0 mm | - | 133 W/m² | - |
| 1777639215 | 9.44° C | 83% | 1020.8 hPa | 0 mm | - | 123 W/m² | - |
| 1777638911 | 9.44° C | 82% | 1020.6 hPa | 0 mm | - | 74 W/m² | - |
| 1777638606 | 9.44° C | 83% | 1020.6 hPa | 0 mm | - | 101 W/m² | - |
| 1777638304 | 9.44° C | 83% | 1020.6 hPa | 0 mm | - | 56 W/m² | - |
| 1777637999 | 9.44° C | 82% | 1020.8 hPa | 0 mm | - | 57 W/m² | - |
| 1777637696 | 9.44° C | 83% | 1020.8 hPa | 0 mm | - | 64 W/m² | - |
| 1777637393 | 9.44° C | 82% | 1020.4 hPa | 0 mm | - | 56 W/m² | - |
| 1777637089 | 8.89° C | 83% | 1020.6 hPa | 0 mm | - | 39 W/m² | - |
| 1777636785 | 8.89° C | 85% | 1020.6 hPa | 0 mm | - | 29 W/m² | - |
| 1777636482 | 8.89° C | 87% | 1020.8 hPa | 0 mm | - | 26 W/m² | - |
| 1777636178 | 8.33° C | 90% | 1020.4 hPa | 0 mm | - | 23 W/m² | - |
| 1777635873 | 8.33° C | 94% | 1020.4 hPa | 0 mm | - | 16 W/m² | - |
| 1777635569 | 7.78° C | 95% | 1020.2 hPa | 0 mm | - | 12 W/m² | - |
| 1777635266 | 7.78° C | 95% | 1020.2 hPa | 0 mm | - | 8 W/m² | - |
| 1777634963 | 7.78° C | 95% | 1020.1 hPa | 0 mm | - | 6 W/m² | - |
| 1777634660 | 7.78° C | 95% | 1020 hPa | 0 mm | - | 3 W/m² | - |
| 1777634357 | 7.78° C | 94% | 1020 hPa | 0 mm | - | 0 W/m² | - |
| 1777634054 | 7.78° C | 94% | 1020.2 hPa | 0 mm | - | 0 W/m² | - |
| 1777633750 | 7.78° C | 95% | 1020.1 hPa | 0 mm | - | 0 W/m² | - |
| 1777633449 | 7.78° C | 95% | 1020.1 hPa | 0 mm | - | 0 W/m² | - |
| 1777633146 | 7.78° C | 95% | 1020.2 hPa | 0 mm | - | 0 W/m² | - |
| 1777632842 | 7.78° C | 96% | 1020.2 hPa | 0 mm | - | 0 W/m² | - |
* Rain latest hour (hover to see other rain measurements)
** Current wind speed in m/s (hover to see current wind gust speed)